カタログに戻る

ATS 5

運用中通信GEO
NORAD 4068·PAYLOAD·🇺🇸 United States

打ち上げ Aug 12, 1969 から Cape Canaveral Space Force Station

Loading…

TLE

最新Source: Space-Track

元期: Sep 14, 2026, 13:17 UTC

1 04068U 69069A   26257.55347747  .00000028  00000-0  00000-0 0  9992
2 04068   0.4054 119.9548 0005824 152.0529 171.3801  0.99488126 47215

AllMySatでATS 5をリアルタイム追跡

Download on the App Store